| time (UTC) | temp C | wind direction | speed KPH | gust KPH | rain 1hr cm | rain 24hr cm | rain mn cm | humidity % | barometer mb |
| 20260507021239 | 11 | 247 | 1.6 | 3.2 | 0.00 | 0.00 | 0.00 | 10 | 1010.2 |
| 20260507020806 | 11 | 225 | 3.2 | 3.2 | 0.00 | 0.00 | 0.00 | 10 | 1010.2 |
| 20260507020802 | 11 | 225 | 3.2 | 3.2 | 0.00 | 0.00 | 0.00 | 10 | 1010.2 |
| 20260507020330 | 12 | 216 | 3.2 | 3.2 | 0.00 | 0.00 | 0.00 | 10 | 1010.2 |
| 20260507020324 | 12 | 216 | 3.2 | 3.2 | 0.00 | 0.00 | 0.00 | 10 | 1010.2 |
| 20260507014937 | 12 | 180 | 1.6 | 1.6 | 0.00 | 0.00 | 0.00 | 10 | 1010.0 |
| 20260507014932 | 12 | 180 | 1.6 | 1.6 | 0.00 | 0.00 | 0.00 | 10 | 1010.0 |
| 20260507014459 | 12 | 180 | 1.6 | 1.6 | 0.00 | 0.00 | 0.00 | 10 | 1010.0 |
| 20260507014455 | 12 | 180 | 1.6 | 1.6 | 0.00 | 0.00 | 0.00 | 10 | 1010.0 |
| 20260507014022 | 12 | 168 | 1.6 | 3.2 | 0.00 | 0.00 | 0.00 | 10 | 1009.9 |
| 20260507014017 | 12 | 168 | 1.6 | 3.2 | 0.00 | 0.00 | 0.00 | 10 | 1009.9 |
| 20260507013541 | 12 | 151 | 3.2 | 3.2 | 0.00 | 0.00 | 0.00 | 10 | 1009.9 |
| 20260507013108 | 12 | 181 | 0.0 | 3.2 | 0.00 | 0.00 | 0.00 | 10 | 1009.8 |
| 20260507013102 | 12 | 181 | 0.0 | 3.2 | 0.00 | 0.00 | 0.00 | 10 | 1009.8 |
| 20260507012630 | 12 | 270 | 1.6 | 1.6 | 0.00 | 0.00 | 0.00 | 10 | 1009.9 |
| 20260507012625 | 12 | 270 | 1.6 | 1.6 | 0.00 | 0.00 | 0.00 | 10 | 1009.9 |
| 20260507011710 | 12 | 138 | 4.8 | 8.0 | 0.00 | 0.00 | 0.00 | 10 | 1009.7 |
| 20260507010800 | 12 | 145 | 3.2 | 4.8 | 0.00 | 0.00 | 0.00 | 10 | 1009.8 |
| 20260507010755 | 12 | 145 | 3.2 | 4.8 | 0.00 | 0.00 | 0.00 | 10 | 1009.8 |
| 20260507010323 | 12 | 224 | 3.2 | 3.2 | 0.00 | 0.00 | 0.00 | 10 | 1009.9 |
| 20260507010318 | 12 | 224 | 3.2 | 3.2 | 0.00 | 0.00 | 0.00 | 10 | 1009.9 |
| 20260507005841 | 12 | 222 | 1.6 | 3.2 | 0.00 | 0.00 | 0.00 | 10 | 1009.9 |
| 20260507005414 | 12 | 216 | 1.6 | 3.2 | 0.00 | 0.00 | 0.00 | 10 | 1009.7 |
| 20260507005408 | 12 | 216 | 1.6 | 3.2 | 0.00 | 0.00 | 0.00 | 10 | 1009.7 |
| 20260507005403 | 12 | 216 | 1.6 | 3.2 | 0.00 | 0.00 | 0.00 | 10 | 1009.7 |
| 20260507004453 | 12 | 203 | 1.6 | 3.2 | 0.00 | 0.00 | 0.00 | 10 | 1009.5 |
| 20260507004015 | 12 | 93 | 1.6 | 4.8 | 0.00 | 0.00 | 0.00 | 10 | 1009.4 |
| 20260507004011 | 12 | 93 | 1.6 | 4.8 | 0.00 | 0.00 | 0.00 | 10 | 1009.4 |
| 20260507003538 | 12 | 219 | 0.0 | 3.2 | 0.00 | 0.00 | 0.00 | 10 | 1009.3 |
| 20260507003533 | 12 | 219 | 0.0 | 3.2 | 0.00 | 0.00 | 0.00 | 10 | 1009.3 |
| 20260507003116 | 12 | 115 | 0.0 | 3.2 | 0.00 | 0.00 | 0.00 | 10 | 1009.3 |
| 20260507003101 | 12 | 115 | 0.0 | 3.2 | 0.00 | 0.00 | 0.00 | 10 | 1009.3 |
| 20260507003056 | 12 | 115 | 0.0 | 3.2 | 0.00 | 0.00 | 0.00 | 10 | 1009.3 |
| 20260507001708 | 12 | 296 | 1.6 | 4.8 | 0.00 | 0.00 | 0.00 | 10 | 1009.4 |
| 20260507001704 | 12 | 296 | 1.6 | 4.8 | 0.00 | 0.00 | 0.00 | 10 | 1009.4 |
| 20260507001231 | 12 | 276 | 1.6 | 3.2 | 0.00 | 0.00 | 0.00 | 10 | 1009.3 |
| 20260507001226 | 12 | 276 | 1.6 | 3.2 | 0.00 | 0.00 | 0.00 | 10 | 1009.3 |
| 20260507000753 | 12 | 287 | 1.6 | 4.8 | 0.00 | 0.00 | 0.00 | 10 | 1009.2 |
| 20260507000749 | 12 | 287 | 1.6 | 4.8 | 0.00 | 0.00 | 0.00 | 10 | 1009.2 |
| 20260506235839 | 12 | 299 | 1.6 | 3.2 | 0.00 | 0.00 | 0.00 | 10 | 1009.2 |
| 20260506235834 | 12 | 299 | 1.6 | 3.2 | 0.00 | 0.00 | 0.00 | 10 | 1009.2 |
| 20260506235356 | 12 | 321 | 3.2 | 8.0 | 0.00 | 0.00 | 0.00 | 10 | 1009.1 |
| 20260506235005 | 12 | 308 | 3.2 | 4.8 | 0.00 | 0.00 | 0.00 | 10 | 1009.1 |
| 20260506234924 | 12 | 308 | 3.2 | 4.8 | 0.00 | 0.00 | 0.00 | 10 | 1009.1 |
| 20260506234919 | 12 | 308 | 3.2 | 4.8 | 0.00 | 0.00 | 0.00 | 10 | 1009.1 |
| 20260506234447 | 12 | 12 | 1.6 | 6.4 | 0.00 | 0.00 | 0.00 | 10 | 1008.8 |
| 20260506234441 | 12 | 12 | 1.6 | 6.4 | 0.00 | 0.00 | 0.00 | 10 | 1008.8 |
| 20260506234009 | 12 | 317 | 3.2 | 4.8 | 0.00 | 0.00 | 0.00 | 10 | 1008.7 |
| 20260506234004 | 12 | 317 | 3.2 | 4.8 | 0.00 | 0.00 | 0.00 | 10 | 1008.7 |
| 20260506233531 | 12 | 348 | 1.6 | 3.2 | 0.00 | 0.00 | 0.00 | 10 | 1008.7 |
| 20260506233527 | 12 | 348 | 1.6 | 3.2 | 0.00 | 0.00 | 0.00 | 10 | 1008.7 |
| 20260506233054 | 12 | 53 | 1.6 | 1.6 | 0.00 | 0.00 | 0.00 | 10 | 1008.7 |
| 20260506233049 | 12 | 53 | 1.6 | 1.6 | 0.00 | 0.00 | 0.00 | 10 | 1008.7 |
| 20260506232616 | 12 | 332 | 1.6 | 3.2 | 0.00 | 0.00 | 0.00 | 10 | 1008.7 |
| 20260506232612 | 12 | 332 | 1.6 | 3.2 | 0.00 | 0.00 | 0.00 | 10 | 1008.7 |
| 20260506231702 | 12 | 306 | 1.6 | 4.8 | 0.00 | 0.00 | 0.00 | 10 | 1009.0 |
| 20260506231657 | 12 | 306 | 1.6 | 4.8 | 0.00 | 0.00 | 0.00 | 10 | 1009.0 |
| 20260506231219 | 12 | 328 | 4.8 | 6.4 | 0.00 | 0.00 | 0.00 | 10 | 1009.0 |
| 20260506230742 | 12 | 319 | 3.2 | 8.0 | 0.00 | 0.00 | 0.00 | 10 | 1008.9 |
| 20260506230309 | 12 | 315 | 3.2 | 4.8 | 0.00 | 0.00 | 0.00 | 10 | 1009.0 |
| 20260506230304 | 12 | 315 | 3.2 | 4.8 | 0.00 | 0.00 | 0.00 | 10 | 1009.0 |
| 20260506225832 | 12 | 322 | 3.2 | 6.4 | 0.00 | 0.00 | 0.00 | 10 | 1009.0 |
| 20260506225827 | 12 | 322 | 3.2 | 6.4 | 0.00 | 0.00 | 0.00 | 10 | 1009.0 |
| 20260506225414 | 12 | 316 | 3.2 | 8.0 | 0.00 | 0.00 | 0.00 | 10 | 1009.1 |
| 20260506225354 | 12 | 316 | 3.2 | 8.0 | 0.00 | 0.00 | 0.00 | 10 | 1009.1 |
| 20260506225350 | 12 | 316 | 3.2 | 8.0 | 0.00 | 0.00 | 0.00 | 10 | 1009.1 |
| 20260506224917 | 12 | 318 | 4.8 | 8.0 | 0.00 | 0.00 | 0.00 | 10 | 1009.1 |
| 20260506224912 | 12 | 318 | 4.8 | 8.0 | 0.00 | 0.00 | 0.00 | 10 | 1009.1 |
| 20260506224440 | 11 | 301 | 3.2 | 4.8 | 0.00 | 0.00 | 0.00 | 10 | 1009.2 |
| 20260506224435 | 11 | 301 | 3.2 | 4.8 | 0.00 | 0.00 | 0.00 | 10 | 1009.2 |
| 20260506223957 | 11 | 306 | 3.2 | 4.8 | 0.00 | 0.00 | 0.00 | 10 | 1009.2 |
| 20260506223047 | 11 | 295 | 3.2 | 4.8 | 0.00 | 0.00 | 0.00 | 10 | 1009.2 |
| 20260506223042 | 11 | 295 | 3.2 | 4.8 | 0.00 | 0.00 | 0.00 | 10 | 1009.2 |
| 20260506222610 | 11 | 303 | 3.2 | 4.8 | 0.00 | 0.00 | 0.00 | 10 | 1009.2 |
| 20260506222605 | 11 | 303 | 3.2 | 4.8 | 0.00 | 0.00 | 0.00 | 10 | 1009.2 |
| 20260506222132 | 11 | 311 | 3.2 | 3.2 | 0.00 | 0.00 | 0.00 | 10 | 1009.1 |
| 20260506222128 | 11 | 311 | 3.2 | 3.2 | 0.00 | 0.00 | 0.00 | 10 | 1009.1 |
| 20260506221655 | 11 | 296 | 1.6 | 3.2 | 0.00 | 0.00 | 0.00 | 10 | 1009.0 |
| 20260506221650 | 11 | 296 | 1.6 | 3.2 | 0.00 | 0.00 | 0.00 | 10 | 1009.0 |
| 20260506221218 | 11 | 272 | 1.6 | 4.8 | 0.00 | 0.00 | 0.00 | 10 | 1008.9 |
| 20260506221213 | 11 | 272 | 1.6 | 4.8 | 0.00 | 0.00 | 0.00 | 10 | 1008.9 |
| 20260506220740 | 11 | 237 | 1.6 | 3.2 | 0.00 | 0.00 | 0.00 | 10 | 1008.7 |
| 20260506220735 | 11 | 237 | 1.6 | 3.2 | 0.00 | 0.00 | 0.00 | 10 | 1008.7 |
| 20260506215826 | 11 | 288 | 1.6 | 4.8 | 0.00 | 0.00 | 0.00 | 10 | 1008.3 |
| 20260506215821 | 11 | 288 | 1.6 | 4.8 | 0.00 | 0.00 | 0.00 | 10 | 1008.3 |
| 20260506214911 | 11 | 326 | 4.8 | 6.4 | 0.00 | 0.00 | 0.00 | 10 | 1007.9 |
| 20260506214459 | 11 | 322 | 4.8 | 6.4 | 0.00 | 0.00 | 0.00 | 10 | 1007.9 |
| 20260506214433 | 11 | 322 | 4.8 | 6.4 | 0.00 | 0.00 | 0.00 | 10 | 1007.9 |
| 20260506214429 | 11 | 322 | 4.8 | 6.4 | 0.00 | 0.00 | 0.00 | 10 | 1007.9 |
| 20260506213956 | 11 | 344 | 4.8 | 8.0 | 0.00 | 0.00 | 0.00 | 10 | 1007.8 |
| 20260506213951 | 11 | 344 | 4.8 | 8.0 | 0.00 | 0.00 | 0.00 | 10 | 1007.8 |
| 20260506213519 | 11 | 302 | 3.2 | 4.8 | 0.00 | 0.00 | 0.00 | 10 | 1007.8 |
| 20260506213514 | 11 | 302 | 3.2 | 4.8 | 0.00 | 0.00 | 0.00 | 10 | 1007.8 |
| 20260506213041 | 10 | 331 | 3.2 | 4.8 | 0.00 | 0.00 | 0.00 | 10 | 1007.7 |
| 20260506213037 | 10 | 331 | 3.2 | 4.8 | 0.00 | 0.00 | 0.00 | 10 | 1007.7 |
| 20260506211649 | 10 | 135 | 0.0 | 0.0 | 0.00 | 0.00 | 0.00 | 10 | 1007.3 |
| 20260506211645 | 10 | 135 | 0.0 | 0.0 | 0.00 | 0.00 | 0.00 | 10 | 1007.3 |
| 20260506211213 | 10 | 135 | 0.0 | 1.6 | 0.00 | 0.00 | 0.00 | 10 | 1007.2 |
| 20260506211207 | 10 | 135 | 0.0 | 1.6 | 0.00 | 0.00 | 0.00 | 10 | 1007.2 |
| 20260506210730 | 10 | 135 | 1.6 | 1.6 | 0.00 | 0.00 | 0.00 | 10 | 1007.1 |
| 20260506210257 | 10 | 135 | 1.6 | 3.2 | 0.00 | 0.00 | 0.00 | 10 | 1007.1 |
| 20260506210253 | 10 | 135 | 1.6 | 3.2 | 0.00 | 0.00 | 0.00 | 10 | 1007.1 |
| 20260506205815 | 10 | 135 | 0.0 | 3.2 | 0.00 | 0.00 | 0.00 | 10 | 1007.0 |
| 20260506205338 | 11 | 141 | 0.0 | 0.0 | 0.00 | 0.00 | 0.00 | 10 | 1007.0 |
| 20260506204428 | 11 | 147 | 0.0 | 0.0 | 0.00 | 0.00 | 0.00 | 10 | 1007.1 |
| 20260506204423 | 11 | 147 | 0.0 | 0.0 | 0.00 | 0.00 | 0.00 | 10 | 1007.1 |
| 20260506203513 | 12 | 135 | 0.0 | 3.2 | 0.00 | 0.00 | 0.00 | 10 | 1007.0 |
| 20260506203508 | 12 | 135 | 0.0 | 3.2 | 0.00 | 0.00 | 0.00 | 10 | 1007.0 |
| 20260506203036 | 12 | 135 | 1.6 | 3.2 | 0.00 | 0.00 | 0.00 | 10 | 1007.0 |
| 20260506203031 | 12 | 135 | 1.6 | 3.2 | 0.00 | 0.00 | 0.00 | 10 | 1007.0 |
| 20260506201201 | 13 | 108 | 3.2 | 3.2 | 0.00 | 0.00 | 0.00 | 10 | 1006.9 |
| 20260506200729 | 13 | 83 | 1.6 | 3.2 | 0.00 | 0.00 | 0.00 | 10 | 1007.0 |
| 20260506200724 | 13 | 83 | 1.6 | 3.2 | 0.00 | 0.00 | 0.00 | 10 | 1007.0 |
| 20260506200246 | 13 | 105 | 1.6 | 3.2 | 0.00 | 0.00 | 0.00 | 10 | 1007.1 |
| 20260506195814 | 13 | 132 | 3.2 | 6.4 | 0.00 | 0.00 | 0.00 | 10 | 1007.2 |
| 20260506195809 | 13 | 132 | 3.2 | 6.4 | 0.00 | 0.00 | 0.00 | 10 | 1007.2 |
| 20260506195336 | 13 | 126 | 1.6 | 3.2 | 0.00 | 0.00 | 0.00 | 10 | 1007.1 |
| 20260506195331 | 13 | 126 | 1.6 | 3.2 | 0.00 | 0.00 | 0.00 | 10 | 1007.1 |
| 20260506194855 | 13 | 82 | 3.2 | 6.4 | 0.00 | 0.00 | 0.00 | 10 | 1007.0 |
| 20260506194421 | 13 | 60 | 4.8 | 9.7 | 0.00 | 0.00 | 0.00 | 10 | 1006.9 |
| 20260506194416 | 13 | 60 | 4.8 | 9.7 | 0.00 | 0.00 | 0.00 | 10 | 1006.9 |
| 20260506193944 | 13 | 138 | 3.2 | 4.8 | 0.00 | 0.00 | 0.00 | 10 | 1007.0 |
| 20260506193939 | 13 | 138 | 3.2 | 4.8 | 0.00 | 0.00 | 0.00 | 10 | 1007.0 |
| 20260506193506 | 13 | 136 | 3.2 | 6.4 | 0.00 | 0.00 | 0.00 | 10 | 1007.0 |
| 20260506193502 | 13 | 136 | 3.2 | 6.4 | 0.00 | 0.00 | 0.00 | 10 | 1007.0 |
| 20260506193024 | 13 | 106 | 3.2 | 8.0 | 0.00 | 0.00 | 0.00 | 10 | 1007.1 |
| 20260506192551 | 13 | 23 | 3.2 | 6.4 | 0.00 | 0.00 | 0.00 | 10 | 1007.1 |
| 20260506192547 | 13 | 23 | 3.2 | 6.4 | 0.00 | 0.00 | 0.00 | 10 | 1007.1 |
| 20260506192129 | 13 | 81 | 1.6 | 3.2 | 0.00 | 0.00 | 0.00 | 10 | 1007.3 |
| 20260506192114 | 13 | 81 | 1.6 | 3.2 | 0.00 | 0.00 | 0.00 | 10 | 1007.3 |
| 20260506192109 | 13 | 81 | 1.6 | 3.2 | 0.00 | 0.00 | 0.00 | 10 | 1007.3 |
| 20260506191636 | 13 | 66 | 4.8 | 8.0 | 0.00 | 0.00 | 0.00 | 10 | 1007.3 |
| 20260506191632 | 13 | 66 | 4.8 | 8.0 | 0.00 | 0.00 | 0.00 | 10 | 1007.3 |
| 20260506191159 | 13 | 91 | 3.2 | 8.0 | 0.00 | 0.00 | 0.00 | 10 | 1007.3 |
| 20260506191154 | 13 | 91 | 3.2 | 8.0 | 0.00 | 0.00 | 0.00 | 10 | 1007.3 |
| 20260506190721 | 13 | 83 | 3.2 | 8.0 | 0.00 | 0.00 | 0.00 | 10 | 1007.4 |
| 20260506190717 | 13 | 83 | 3.2 | 8.0 | 0.00 | 0.00 | 0.00 | 10 | 1007.4 |
| 20260506185806 | 13 | 63 | 4.8 | 12.9 | 0.00 | 0.00 | 0.00 | 10 | 1007.5 |
| 20260506185802 | 13 | 63 | 4.8 | 12.9 | 0.00 | 0.00 | 0.00 | 10 | 1007.5 |
| 20260506185324 | 13 | 10 | 4.8 | 11.3 | 0.00 | 0.00 | 0.00 | 10 | 1007.5 |
| 20260506184852 | 13 | 335 | 3.2 | 4.8 | 0.00 | 0.00 | 0.00 | 10 | 1007.6 |
| 20260506184847 | 13 | 335 | 3.2 | 4.8 | 0.00 | 0.00 | 0.00 | 10 | 1007.6 |
| 20260506184414 | 13 | 359 | 4.8 | 6.4 | 0.00 | 0.00 | 0.00 | 10 | 1007.6 |
| 20260506184409 | 13 | 359 | 4.8 | 6.4 | 0.00 | 0.00 | 0.00 | 10 | 1007.6 |
| 20260506183459 | 13 | 327 | 3.2 | 4.8 | 0.00 | 0.00 | 0.00 | 10 | 1007.6 |
| 20260506183454 | 13 | 327 | 3.2 | 4.8 | 0.00 | 0.00 | 0.00 | 10 | 1007.6 |
| 20260506182544 | 13 | 310 | 3.2 | 4.8 | 0.00 | 0.00 | 0.00 | 10 | 1007.3 |
| 20260506182539 | 13 | 310 | 3.2 | 4.8 | 0.00 | 0.00 | 0.00 | 10 | 1007.3 |
| 20260506181630 | 13 | 329 | 3.2 | 4.8 | 0.00 | 0.00 | 0.00 | 10 | 1007.2 |
| 20260506181624 | 13 | 329 | 3.2 | 4.8 | 0.00 | 0.00 | 0.00 | 10 | 1007.2 |
| 20260506181151 | 13 | 344 | 4.8 | 6.4 | 0.00 | 0.00 | 0.00 | 10 | 1007.3 |
| 20260506181147 | 13 | 344 | 4.8 | 6.4 | 0.00 | 0.00 | 0.00 | 10 | 1007.3 |
| 20260506180714 | 13 | 313 | 4.8 | 8.0 | 0.00 | 0.00 | 0.00 | 10 | 1007.3 |
| 20260506180709 | 13 | 313 | 4.8 | 8.0 | 0.00 | 0.00 | 0.00 | 10 | 1007.3 |
| 20260506180236 | 13 | 323 | 8.0 | 11.3 | 0.00 | 0.00 | 0.00 | 10 | 1007.3 |
| 20260506180232 | 13 | 323 | 8.0 | 11.3 | 0.00 | 0.00 | 0.00 | 10 | 1007.3 |
| 20260506175759 | 13 | 323 | 8.0 | 9.7 | 0.00 | 0.00 | 0.00 | 10 | 1007.3 |
| 20260506175322 | 13 | 317 | 6.4 | 8.0 | 0.00 | 0.00 | 0.00 | 10 | 1007.0 |
| 20260506175317 | 13 | 317 | 6.4 | 8.0 | 0.00 | 0.00 | 0.00 | 10 | 1007.0 |
| 20260506174406 | 13 | 330 | 1.6 | 3.2 | 0.00 | 0.00 | 0.00 | 10 | 1006.7 |
| 20260506174401 | 13 | 330 | 1.6 | 3.2 | 0.00 | 0.00 | 0.00 | 10 | 1006.7 |
| 20260506173924 | 13 | 346 | 1.6 | 4.8 | 0.00 | 0.00 | 0.00 | 10 | 1006.5 |
| 20260506173014 | 13 | 334 | 1.6 | 3.2 | 0.00 | 0.00 | 0.00 | 10 | 1006.6 |
| 20260506173009 | 13 | 334 | 1.6 | 3.2 | 0.00 | 0.00 | 0.00 | 10 | 1006.6 |
| 20260506172536 | 13 | 1 | 1.6 | 3.2 | 0.00 | 0.00 | 0.00 | 10 | 1006.5 |
| 20260506172532 | 13 | 1 | 1.6 | 3.2 | 0.00 | 0.00 | 0.00 | 10 | 1006.5 |
| 20260506172054 | 14 | 235 | 0.0 | 1.6 | 0.00 | 0.00 | 0.00 | 10 | 1006.5 |
| 20260506171617 | 14 | 165 | 0.0 | 1.6 | 0.00 | 0.00 | 0.00 | 10 | 1006.4 |
| 20260506170706 | 14 | 72 | 1.6 | 3.2 | 0.00 | 0.00 | 0.00 | 10 | 1006.4 |
| 20260506170702 | 14 | 72 | 1.6 | 3.2 | 0.00 | 0.00 | 0.00 | 10 | 1006.4 |
| 20260506170224 | 14 | 73 | 3.2 | 6.4 | 0.00 | 0.00 | 0.00 | 10 | 1006.3 |
| 20260506165746 | 14 | 84 | 1.6 | 4.8 | 0.00 | 0.00 | 0.00 | 10 | 1006.3 |
| 20260506165309 | 15 | 7 | 3.2 | 8.0 | 0.00 | 0.00 | 0.00 | 10 | 1006.4 |
| 20260506164836 | 15 | 19 | 4.8 | 8.0 | 0.00 | 0.00 | 0.00 | 10 | 1006.3 |
| 20260506164831 | 15 | 19 | 4.8 | 8.0 | 0.00 | 0.00 | 0.00 | 10 | 1006.3 |
| 20260506164358 | 15 | 10 | 3.2 | 6.4 | 0.00 | 0.00 | 0.00 | 10 | 1006.4 |
| 20260506164353 | 15 | 10 | 3.2 | 6.4 | 0.00 | 0.00 | 0.00 | 10 | 1006.4 |
| 20260506163921 | 15 | 350 | 3.2 | 4.8 | 0.00 | 0.00 | 0.00 | 10 | 1006.5 |
| 20260506163916 | 15 | 350 | 3.2 | 4.8 | 0.00 | 0.00 | 0.00 | 10 | 1006.5 |
| 20260506163438 | 15 | 22 | 1.6 | 3.2 | 0.00 | 0.00 | 0.00 | 10 | 1006.5 |
| 20260506162050 | 15 | 359 | 3.2 | 8.0 | 0.00 | 0.00 | 0.00 | 10 | 1006.7 |
| 20260506162045 | 15 | 359 | 3.2 | 8.0 | 0.00 | 0.00 | 0.00 | 10 | 1006.7 |
| 20260506161608 | 15 | 344 | 3.2 | 8.0 | 0.00 | 0.00 | 0.00 | 10 | 1006.8 |
| 20260506161135 | 15 | 327 | 3.2 | 8.0 | 0.00 | 0.00 | 0.00 | 10 | 1006.9 |
| 20260506161130 | 15 | 327 | 3.2 | 8.0 | 0.00 | 0.00 | 0.00 | 10 | 1006.9 |
| 20260506160215 | 16 | 344 | 4.8 | 6.4 | 0.00 | 0.00 | 0.00 | 10 | 1007.2 |
| 20260506155306 | 16 | 318 | 6.4 | 8.0 | 0.00 | 0.00 | 0.00 | 10 | 1006.8 |
| 20260506155300 | 16 | 318 | 6.4 | 8.0 | 0.00 | 0.00 | 0.00 | 10 | 1006.8 |
| 20260506154822 | 17 | 321 | 6.4 | 11.3 | 0.00 | 0.00 | 0.00 | 10 | 1006.6 |
| 20260506154344 | 17 | 308 | 6.4 | 8.0 | 0.00 | 0.00 | 0.00 | 10 | 1006.4 |
| 20260506153911 | 17 | 319 | 6.4 | 11.3 | 0.00 | 0.00 | 0.00 | 10 | 1006.6 |
| 20260506153906 | 17 | 319 | 6.4 | 11.3 | 0.00 | 0.00 | 0.00 | 10 | 1006.6 |
| 20260506153428 | 18 | 334 | 4.8 | 9.7 | 0.00 | 0.00 | 0.00 | 10 | 1006.5 |
| 20260506152955 | 18 | 329 | 3.2 | 8.0 | 0.00 | 0.00 | 0.00 | 10 | 1006.6 |
| 20260506152950 | 18 | 329 | 3.2 | 8.0 | 0.00 | 0.00 | 0.00 | 10 | 1006.6 |
| 20260506152517 | 18 | 339 | 1.6 | 3.2 | 0.00 | 0.00 | 0.00 | 10 | 1006.6 |
| 20260506152513 | 18 | 339 | 1.6 | 3.2 | 0.00 | 0.00 | 0.00 | 10 | 1006.6 |
| 20260506151601 | 18 | 212 | 1.6 | 3.2 | 0.00 | 0.00 | 0.00 | 10 | 1006.7 |
| 20260506151124 | 18 | 180 | 3.2 | 4.8 | 0.00 | 0.00 | 0.00 | 10 | 1006.7 |
| 20260506151119 | 18 | 180 | 3.2 | 4.8 | 0.00 | 0.00 | 0.00 | 10 | 1006.7 |
| 20260506150203 | 18 | 320 | 3.2 | 4.8 | 0.00 | 0.00 | 0.00 | 10 | 1006.6 |
| 20260506145730 | 19 | 344 | 3.2 | 4.8 | 0.00 | 0.00 | 0.00 | 10 | 1006.6 |
| 20260506145725 | 19 | 344 | 3.2 | 4.8 | 0.00 | 0.00 | 0.00 | 10 | 1006.6 |
| 20260506144814 | 19 | 315 | 1.6 | 4.8 | 0.00 | 0.00 | 0.00 | 10 | 0.1 |
| 20260506144809 | 19 | 315 | 1.6 | 4.8 | 0.00 | 0.00 | 0.00 | 10 | 1006.8 |
| 20260506144331 | 19 | 309 | 3.2 | 6.4 | 0.00 | 0.00 | 0.00 | 10 | 1006.9 |
| 20260506142942 | 21 | 293 | 1.6 | 8.0 | 0.00 | 0.00 | 0.00 | 92 | 1007.1 |
| 20260506142459 | 21 | 167 | 1.6 | 3.2 | 0.00 | 0.00 | 0.00 | 83 | 1007.1 |
| 20260506142021 | 21 | 183 | 3.2 | 4.8 | 0.00 | 0.00 | 0.00 | 84 | 1007.1 |
| 20260506141543 | 21 | 178 | 4.8 | 6.4 | 0.00 | 0.00 | 0.00 | 86 | 1007.1 |
| 20260506141104 | 21 | 162 | 4.8 | 8.0 | 0.00 | 0.00 | 0.00 | 91 | 1007.2 |
| 20260506140630 | 21 | 182 | 4.8 | 6.4 | 0.00 | 0.00 | 0.00 | 87 | 1007.2 |
| 20260506140626 | 21 | 182 | 4.8 | 6.4 | 0.00 | 0.00 | 0.00 | 87 | 1007.2 |
| 20260506140148 | 21 | 176 | 6.4 | 11.3 | 0.00 | 0.00 | 0.00 | 83 | 1007.1 |
| 20260506135714 | 21 | 167 | 6.4 | 14.5 | 0.00 | 0.00 | 0.00 | 77 | 1007.1 |
| 20260506135709 | 21 | 167 | 6.4 | 14.5 | 0.00 | 0.00 | 0.00 | 77 | 1007.1 |
| 20260506135231 | 21 | 159 | 8.0 | 14.5 | 0.00 | 0.00 | 0.00 | 70 | 1007.2 |
| 20260506134753 | 21 | 153 | 9.7 | 16.1 | 0.00 | 0.00 | 0.00 | 75 | 1007.3 |
| 20260506134315 | 21 | 156 | 11.3 | 16.1 | 0.00 | 0.00 | 0.00 | 73 | 1007.3 |
| 20260506132003 | 21 | 109 | 3.2 | 8.0 | 0.00 | 0.00 | 0.00 | 76 | 1007.5 |
| 20260506125656 | 22 | 131 | 4.8 | 6.4 | 0.00 | 0.00 | 0.00 | 76 | 1008.0 |
| 20260506125651 | 22 | 131 | 4.8 | 6.4 | 0.00 | 0.00 | 0.00 | 76 | 1008.0 |
| 20260506125218 | -17 | 117 | 3.2 | 4.8 | 0.00 | 0.00 | 0.00 | 1.0 | |
| 20260506125213 | 22 | 117 | 3.2 | 4.8 | 0.00 | 0.00 | 0.00 | 87 | 1008.1 |
| 20260506124256 | 22 | 166 | 3.2 | 4.8 | 0.00 | 0.00 | 0.00 | 61 | 1008.2 |
| 20260506123339 | 23 | 189 | 4.8 | 6.4 | 0.00 | 0.00 | 0.00 | 59 | 1008.3 |
| 20260506122421 | 23 | 209 | 3.2 | 4.8 | 0.00 | 0.00 | 0.00 | 54 | 1008.3 |
| 20260506121948 | 22 | 217 | 4.8 | 6.4 | 0.00 | 0.00 | 0.00 | 67 | 1008.4 |
| 20260506121942 | 22 | 217 | 4.8 | 6.4 | 0.00 | 0.00 | 0.00 | 67 | 1008.4 |
| 20260506121514 | 22 | 187 | 6.4 | 9.7 | 0.00 | 0.00 | 0.00 | 68 | 1008.4 |
| 20260506121509 | 22 | 187 | 6.4 | 9.7 | 0.00 | 0.00 | 0.00 | 68 | 1008.4 |
| 20260506121504 | 22 | 187 | 6.4 | 9.7 | 0.00 | 0.00 | 0.00 | 68 | 1008.4 |
| 20260506121030 | 22 | 169 | 4.8 | 8.0 | 0.00 | 0.00 | 0.00 | 71 | 1008.4 |
| 20260506121025 | 22 | 169 | 4.8 | 8.0 | 0.00 | 0.00 | 0.00 | 71 | 1008.4 |
| 20260506115629 | 22 | 145 | 8.0 | 11.3 | 0.00 | 0.00 | 0.00 | 58 | 1008.5 |
| 20260506114713 | 23 | 216 | 4.8 | 6.4 | 0.00 | 0.00 | 0.00 | 54 | 1008.5 |
| 20260506113759 | 24 | 296 | 3.2 | 4.8 | 0.00 | 0.00 | 0.00 | 57 | 1008.6 |
| 20260506113754 | 24 | 296 | 3.2 | 4.8 | 0.00 | 0.00 | 0.00 | 57 | 1008.6 |
| 20260506113315 | 25 | 228 | 3.2 | 8.0 | 0.00 | 0.00 | 0.00 | 61 | 1008.6 |
| 20260506111439 | 23 | 287 | 3.2 | 4.8 | 0.00 | 0.00 | 0.00 | 62 | 1008.8 |
| 20260506111005 | 23 | 341 | 3.2 | 4.8 | 0.00 | 0.00 | 0.00 | 71 | 1008.9 |
| 20260506111000 | 23 | 341 | 3.2 | 4.8 | 0.00 | 0.00 | 0.00 | 71 | 1008.9 |
| 20260506110521 | 23 | 267 | 1.6 | 3.2 | 0.00 | 0.00 | 0.00 | 67 | 1008.9 |
| 20260506110042 | 24 | 338 | 3.2 | 4.8 | 0.00 | 0.00 | 0.00 | 59 | 1008.9 |
| 20260506105608 | 25 | 339 | 3.2 | 4.8 | 0.00 | 0.00 | 0.00 | 58 | 1009.0 |
| 20260506105603 | 25 | 339 | 3.2 | 4.8 | 0.00 | 0.00 | 0.00 | 58 | 1009.0 |
| 20260506105124 | 24 | 211 | 3.2 | 6.4 | 0.00 | 0.00 | 0.00 | 63 | 1009.0 |
| 20260506104211 | 23 | 329 | 1.6 | 3.2 | 0.00 | 0.00 | 0.00 | 72 | 10.0 |
| 20260506104206 | 23 | 329 | 1.6 | 3.2 | 0.00 | 0.00 | 0.00 | 72 | 1009.1 |
| 20260506103253 | 23 | 316 | 3.2 | 4.8 | 0.00 | 0.00 | 0.00 | 73 | 1009.1 |
| 20260506103248 | 23 | 316 | 3.2 | 4.8 | 0.00 | 0.00 | 0.00 | 73 | 1009.1 |
| 20260506102814 | 23 | 291 | 1.6 | 4.8 | 0.00 | 0.00 | 0.00 | 71 | 1009.4 |
| 20260506102809 | 23 | 291 | 1.6 | 4.8 | 0.00 | 0.00 | 0.00 | 71 | 1009.4 |
| 20260506102330 | 23 | 255 | 3.2 | 6.4 | 0.00 | 0.00 | 0.00 | 83 | 1009.5 |
| 20260506101851 | 23 | 241 | 3.2 | 6.4 | 0.00 | 0.00 | 0.00 | 66 | 1009.4 |
| 20260506100454 | 23 | 178 | 3.2 | 8.0 | 0.00 | 0.00 | 0.00 | 80 | 1009.6 |
| 20260506100020 | 23 | 197 | 3.2 | 8.0 | 0.00 | 0.00 | 0.00 | 80 | 1009.6 |
| 20260506100015 | 23 | 197 | 3.2 | 8.0 | 0.00 | 0.00 | 0.00 | 80 | 1009.6 |
| 20260506095541 | 23 | 211 | 3.2 | 4.8 | 0.00 | 0.00 | 0.00 | 85 | 1009.5 |
| 20260506095536 | 23 | 211 | 3.2 | 4.8 | 0.00 | 0.00 | 0.00 | 85 | 1009.5 |
| 20260506095103 | 22 | 205 | 3.2 | 6.4 | 0.00 | 0.00 | 0.00 | 84 | 1009.5 |
| 20260506095057 | 22 | 205 | 3.2 | 6.4 | 0.00 | 0.00 | 0.00 | 84 | 1009.5 |
| 20260506094144 | 22 | 228 | 4.8 | 6.4 | 0.00 | 0.00 | 0.00 | 84 | 1009.6 |
| 20260506093222 | 23 | 188 | 1.6 | 3.2 | 0.00 | 0.00 | 0.00 | 84 | 1009.5 |
| 20260506092309 | 22 | 279 | 4.8 | 9.7 | 0.00 | 0.00 | 0.00 | 10 | 1009.5 |
| 20260506092306 | 22 | 279 | 4.8 | 9.7 | 0.00 | 0.00 | 0.00 | 10 | 1009.5 |
| 20260506091826 | 21 | 237 | 3.2 | 8.0 | 0.00 | 0.00 | 0.00 | 94 | 1009.5 |
| 20260506091352 | 21 | 236 | 1.6 | 3.2 | 0.00 | 0.00 | 0.00 | 10 | 1009.6 |
| 20260506091347 | 21 | 236 | 1.6 | 3.2 | 0.00 | 0.00 | 0.00 | 10 | 1009.6 |
| 20260506090908 | 21 | 225 | 6.4 | 8.0 | 0.00 | 0.00 | 0.00 | 97 | 1009.6 |
| 20260506090430 | 20 | 228 | 4.8 | 8.0 | 0.00 | 0.00 | 0.00 | 10 | 1009.6 |
| 20260506085957 | 20 | 215 | 4.8 | 8.0 | 0.00 | 0.00 | 0.00 | 10 | 1009.6 |
| 20260506085951 | 20 | 215 | 4.8 | 8.0 | 0.00 | 0.00 | 0.00 | 10 | 1009.6 |
| 20260506085040 | 20 | 276 | 3.2 | 4.8 | 0.00 | 0.00 | 0.00 | 10 | 1009.5 |
| 20260506085034 | 20 | 276 | 3.2 | 4.8 | 0.00 | 0.00 | 0.00 | 10 | 1009.5 |
| 20260506084556 | 20 | 284 | 1.6 | 3.2 | 0.00 | 0.00 | 0.00 | 10 | 1009.5 |
| 20260506084123 | 20 | 284 | 3.2 | 3.2 | 0.00 | 0.00 | 0.00 | 10 | 1009.5 |
| 20260506084118 | 20 | 284 | 3.2 | 3.2 | 0.00 | 0.00 | 0.00 | 10 | 1009.5 |
| 20260506083644 | 20 | 276 | 3.2 | 4.8 | 0.00 | 0.00 | 0.00 | 10 | 1009.5 |
| 20260506083639 | 20 | 276 | 3.2 | 4.8 | 0.00 | 0.00 | 0.00 | 10 | 1009.5 |
| 20260506083205 | 20 | 277 | 3.2 | 6.4 | 0.00 | 0.00 | 0.00 | 10 | 100.9 |
| 20260506083201 | 20 | 277 | 3.2 | 6.4 | 0.00 | 0.00 | 0.00 | 10 | 1009.5 |
| 20260506082728 | 20 | 224 | 4.8 | 8.0 | 0.00 | 0.00 | 0.00 | 10 | 1009.4 |
| 20260506082722 | 20 | 224 | 4.8 | 8.0 | 0.00 | 0.00 | 0.00 | 10 | 1009.4 |
| 20260506080410 | 20 | 251 | 3.2 | 4.8 | 0.00 | 0.00 | 0.00 | 10 | 1009.6 |
| 20260506072709 | 18 | 278 | 1.6 | 4.8 | 0.00 | 0.00 | 0.00 | 10 | 1009.7 |
| 20260506072704 | 18 | 278 | 1.6 | 4.8 | 0.00 | 0.00 | 0.00 | 10 | 1009.7 |
| 20260506072231 | 17 | 285 | 3.2 | 4.8 | 0.00 | 0.00 | 0.00 | 10 | 1009.7 |
| 20260506072226 | 17 | 285 | 3.2 | 4.8 | 0.00 | 0.00 | 0.00 | 10 | 1009.7 |
| 20260506071315 | 16 | 302 | 3.2 | 4.8 | 0.00 | 0.00 | 0.00 | 10 | 1009.7 |
| 20260506071310 | 16 | 302 | 3.2 | 4.8 | 0.00 | 0.00 | 0.00 | 10 | 1009.7 |
| 20260506070837 | 15 | 332 | 3.2 | 8.0 | 0.00 | 0.00 | 0.00 | 10 | 1009.8 |
| 20260506070832 | 15 | 332 | 3.2 | 8.0 | 0.00 | 0.00 | 0.00 | 10 | 1009.8 |
| 20260506070354 | 16 | 328 | 3.2 | 4.8 | 0.00 | 0.00 | 0.00 | 10 | 1009.7 |
| 20260506062214 | 16 | 234 | 3.2 | 6.4 | 0.00 | 0.00 | 0.00 | 10 | 1009.5 |
| 20260506061259 | 15 | 223 | 4.8 | 8.0 | 0.00 | 0.00 | 0.00 | 10 | 1009.7 |
| 20260506051251 | 12 | 279 | 0.0 | 1.6 | 0.00 | 0.00 | 0.00 | 10 | 1009.6 |
| 20260506050818 | 12 | 280 | 0.0 | 0.0 | 0.00 | 0.00 | 0.00 | 10 | 1009.5 |
| 20260506050813 | 12 | 280 | 0.0 | 0.0 | 0.00 | 0.00 | 0.00 | 10 | 1009.5 |
| 20260506050336 | 12 | 224 | 1.6 | 3.2 | 0.00 | 0.00 | 0.00 | 10 | 1009.4 |
| 20260506044948 | 11 | 145 | 1.6 | 3.2 | 0.00 | 0.00 | 0.00 | 10 | 1009.5 |
| 20260506044944 | 11 | 145 | 1.6 | 3.2 | 0.00 | 0.00 | 0.00 | 10 | 1009.5 |
| 20260506044029 | 11 | 148 | 0.0 | 1.6 | 0.00 | 0.00 | 0.00 | 10 | 1009.4 |
| 20260506043551 | 11 | 135 | 0.0 | 0.0 | 0.00 | 0.00 | 0.00 | 10 | 1009.3 |
| 20260506042637 | 11 | 135 | 0.0 | 3.2 | 0.00 | 0.00 | 0.00 | 10 | 1009.1 |
| 20260506042200 | 11 | 135 | 1.6 | 1.6 | 0.00 | 0.00 | 0.00 | 10 | 1009.0 |
| 20260506041245 | 11 | 135 | 0.0 | 0.0 | 0.00 | 0.00 | 0.00 | 10 | 1009.0 |
| 20260506040330 | 11 | 180 | 0.0 | 0.0 | 0.00 | 0.00 | 0.00 | 10 | 1008.8 |
| 20260506035857 | 11 | 180 | 0.0 | 0.0 | 0.00 | 0.00 | 0.00 | 10 | 1008.7 |
| 20260506035852 | 11 | 180 | 0.0 | 0.0 | 0.00 | 0.00 | 0.00 | 10 | 1008.7 |
| 20260506035420 | 11 | 180 | 0.0 | 0.0 | 0.00 | 0.00 | 0.00 | 10 | 1008.7 |
| 20260506035415 | 11 | 180 | 0.0 | 0.0 | 0.00 | 0.00 | 0.00 | 10 | 1008.7 |
| 20260506034023 | 11 | 225 | 0.0 | 0.0 | 0.00 | 0.00 | 0.00 | 10 | 1008.7 |
| 20260506033546 | 11 | 225 | 0.0 | 0.0 | 0.00 | 0.00 | 0.00 | 10 | 1008.6 |
| 20260506033108 | 11 | 225 | 0.0 | 0.0 | 0.00 | 0.00 | 0.00 | 10 | 1008.7 |
| 20260506032631 | 11 | 213 | 1.6 | 3.2 | 0.00 | 0.00 | 0.00 | 10 | 1008.7 |
| 20260506032154 | 11 | 225 | 3.2 | 3.2 | 0.00 | 0.00 | 0.00 | 10 | 1008.7 |
| 20260506031716 | 11 | 225 | 3.2 | 3.2 | 0.00 | 0.00 | 0.00 | 10 | 1008.7 |
| 20260506031244 | 11 | 225 | 3.2 | 3.2 | 0.00 | 0.00 | 0.00 | 10 | 1008.8 |
| 20260506031239 | 11 | 225 | 3.2 | 3.2 | 0.00 | 0.00 | 0.00 | 10 | 1008.8 |
| 20260506025852 | 11 | 225 | 3.2 | 4.8 | 0.00 | 0.00 | 0.00 | 10 | 1008.6 |
| 20260506025414 | 11 | 225 | 3.2 | 4.8 | 0.00 | 0.00 | 0.00 | 10 | 1008.6 |
| 20260506025410 | 11 | 225 | 3.2 | 4.8 | 0.00 | 0.00 | 0.00 | 10 | 1008.6 |
| 20260506024937 | 11 | 228 | 3.2 | 4.8 | 0.00 | 0.00 | 0.00 | 10 | 1008.6 |
| 20260506024933 | 11 | 228 | 3.2 | 4.8 | 0.00 | 0.00 | 0.00 | 10 | 1008.6 |
| 20260506024455 | 11 | 225 | 1.6 | 4.8 | 0.00 | 0.00 | 0.00 | 10 | 1008.6 |
| 20260506024022 | 11 | 225 | 1.6 | 3.2 | 0.00 | 0.00 | 0.00 | 10 | 1008.4 |
| 20260506024017 | 11 | 225 | 1.6 | 3.2 | 0.00 | 0.00 | 0.00 | 10 | 1008.4 |
| 20260506023540 | 11 | 225 | 3.2 | 3.2 | 0.00 | 0.00 | 0.00 | 10 | 1008.3 |
| 20260506022630 | 11 | 225 | 3.2 | 3.2 | 0.00 | 0.00 | 0.00 | 10 | 1008.3 |
| 20260506022625 | 11 | 225 | 3.2 | 3.2 | 0.00 | 0.00 | 0.00 | 10 | 1008.3 |
| 20260506022148 | 11 | 225 | 3.2 | 3.2 | 0.00 | 0.00 | 0.00 | 10 | 1008.2 |
| 20260506021715 | 11 | 221 | 1.6 | 3.2 | 0.00 | 0.00 | 0.00 | 10 | 1008.1 |
| 20260506021711 | 11 | 221 | 1.6 | 3.2 | 0.00 | 0.00 | 0.00 | 10 | 1008.1 |